Location: San Vito
(41.8833°N, 12.9833°E)
Time: 18:05:29
(UTC+00:00)

Meteor 1-31 Rocket - Pass Details

Date: 17 November 2019
Orbit: 521 x 547 km, 97.6° (Epoch: 07 December)

Event Time Altitude Azimuth Distance (km) Brightness Sun altitude
Rises 03:55:47 0° 9° (N) 2,676 6.4 -23.0°
Reaches altitude 10° 03:57:54 10° 7° (N) 1,786 5.4 -22.6°
Enters shadow 03:59:29 23° 2° (N) 1,150 4.4 -22.3°
